LRCV Weather Reports


time (UTC)temp
F
wind
direction
speed
knots
gust
knots
rain 1hr
in
rain 24hr
in
rain mn
in
humidity
%
barometer
mb
20260508023342 54 10 1.7 0.0 0.00 0.00 0.00 100 1015.0
20260508021842 55 10 1.7 0.0 0.00 0.00 0.00 94 1015.0
20260508020342 55 10 1.7 0.0 0.00 0.00 0.00 94 1015.0
20260508014838 54 10 1.7 0.0 0.00 0.00 0.00 100 1015.0
20260508013342 54 10 1.7 0.0 0.00 0.00 0.00 100 1015.0
20260508011841 55 10 4.3 0.0 0.00 0.00 0.00 94 1015.0
20260508010341 55 10 4.3 0.0 0.00 0.00 0.00 94 1015.0
20260508004842 57 330 1.7 0.0 0.00 0.00 0.00 88 1015.0
20260508003341 57 330 1.7 0.0 0.00 0.00 0.00 88 1015.0
20260508001837 57 330 1.7 0.0 0.00 0.00 0.00 94 1016.0
20260508000342 57 330 1.7 0.0 0.00 0.00 0.00 94 1016.0
20260507234839 59 330 2.6 0.0 0.00 0.00 0.00 88 1016.0
20260507233341 59 330 2.6 0.0 0.00 0.00 0.00 88 1016.0
20260507231841 59 290 1.7 0.0 0.00 0.00 0.00 94 1016.0
20260507230341 59 290 1.7 0.0 0.00 0.00 0.00 94 1016.0
20260507224841 59 290 2.6 0.0 0.00 0.00 0.00 94 1016.0
20260507223502 59 290 2.6 0.0 0.00 0.00 0.00 94 1016.0
20260507221838 59 0 0.0 0.0 0.00 0.00 0.00 88 1016.0
20260507220341 59 0 0.0 0.0 0.00 0.00 0.00 88 1016.0
20260507214841 59 230 0.9 0.0 0.00 0.00 0.00 94 1016.0
20260507213343 59 230 0.9 0.0 0.00 0.00 0.00 94 1016.0
20260507211842 59 360 4.3 0.0 0.00 0.00 0.00 94 1016.0
20260507210342 59 360 4.3 0.0 0.00 0.00 0.00 94 1016.0
20260507204841 61 150 0.9 0.0 0.00 0.00 0.00 88 1016.0
20260507203342 61 150 0.9 0.0 0.00 0.00 0.00 88 1016.0
20260507201842 61 1.7 0.0 0.00 0.00 0.00 94 1016.0
20260507200342 61 1.7 0.0 0.00 0.00 0.00 94 1016.0
20260507194847 63 190 2.6 0.0 0.00 0.00 0.00 88 1016.0
20260507193341 63 190 2.6 0.0 0.00 0.00 0.00 88 1016.0
20260507191841 64 0 0.0 0.0 0.00 0.00 0.00 78 1016.0
20260507190342 64 0 0.0 0.0 0.00 0.00 0.00 78 1016.0
20260507184843 64 0 0.0 0.0 0.00 0.00 0.00 78 1015.0
20260507183341 64 0 0.0 0.0 0.00 0.00 0.00 78 1015.0
20260507181841 64 220 1.7 0.0 0.00 0.00 0.00 78 1015.0
20260507180341 64 220 1.7 0.0 0.00 0.00 0.00 78 1015.0
20260507174841 66 200 2.6 0.0 0.00 0.00 0.00 73 1015.0
20260507173342 66 200 2.6 0.0 0.00 0.00 0.00 73 1015.0
20260507171842 68 0 0.0 0.0 0.00 0.00 0.00 64 1015.0
20260507170341 68 0 0.0 0.0 0.00 0.00 0.00 64 1015.0
20260507164842 68 0 0.0 0.0 0.00 0.00 0.00 69 1015.0
20260507163342 68 0 0.0 0.0 0.00 0.00 0.00 69 1015.0
20260507161841 68 0 0.0 0.0 0.00 0.00 0.00 69 1015.0
20260507160341 68 0 0.0 0.0 0.00 0.00 0.00 69 1015.0
20260507154842 68 1.7 0.0 0.00 0.00 0.00 69 1015.0
20260507153341 68 1.7 0.0 0.00 0.00 0.00 69 1015.0
20260507151841 68 30 1.7 0.0 0.00 0.00 0.00 69 1015.0
20260507150341 68 30 1.7 0.0 0.00 0.00 0.00 69 1015.0
20260507144841 68 360 1.7 0.0 0.00 0.00 0.00 64 1015.0
20260507143343 68 360 1.7 0.0 0.00 0.00 0.00 64 1015.0
20260507141841 70 10 1.7 0.0 0.00 0.00 0.00 60 1015.0
20260507140341 70 10 1.7 0.0 0.00 0.00 0.00 60 1015.0
20260507134842 70 360 2.6 0.0 0.00 0.00 0.00 57 1015.0
20260507133341 70 360 2.6 0.0 0.00 0.00 0.00 57 1015.0
20260507131838 70 340 4.3 0.0 0.00 0.00 0.00 57 1016.0
20260507130341 70 340 4.3 0.0 0.00 0.00 0.00 57 1016.0
20260507124838 68 330 5.2 0.0 0.00 0.00 0.00 60 1016.0
20260507123419 68 330 5.2 0.0 0.00 0.00 0.00 60 1016.0
20260507121841 70 320 6.1 0.0 0.00 0.00 0.00 57 1016.0
20260507120341 70 320 6.1 0.0 0.00 0.00 0.00 57 1016.0
20260507114841 70 330 6.1 0.0 0.00 0.00 0.00 57 1016.0
20260507113401 70 330 5.2 0.0 0.00 0.00 0.00 53 1016.0
20260507111841 70 330 5.2 0.0 0.00 0.00 0.00 53 1016.0
20260507110341 70 330 5.2 0.0 0.00 0.00 0.00 53 1016.0
20260507104841 70 280 6.1 0.0 0.00 0.00 0.00 53 1016.0
20260507103341 70 280 6.1 0.0 0.00 0.00 0.00 53 1016.0
20260507101841 70 260 1.7 0.0 0.00 0.00 0.00 60 1016.0
20260507100342 70 260 1.7 0.0 0.00 0.00 0.00 60 1016.0
20260507094842 68 1.7 0.0 0.00 0.00 0.00 60 1016.0
20260507093342 68 1.7 0.0 0.00 0.00 0.00 60 1016.0
20260507091843 68 1.7 0.0 0.00 0.00 0.00 56 1016.0
20260507090341 68 1.7 0.0 0.00 0.00 0.00 56 1016.0
20260507084841 66 150 4.3 0.0 0.00 0.00 0.00 60 1016.0
20260507083342 66 150 4.3 0.0 0.00 0.00 0.00 60 1016.0
20260507081841 64 120 5.2 0.0 0.00 0.00 0.00 64 1016.0
20260507080342 64 120 5.2 0.0 0.00 0.00 0.00 64 1016.0
20260507074842 64 130 5.2 0.0 0.00 0.00 0.00 64 1016.0
20260507073341 64 130 5.2 0.0 0.00 0.00 0.00 64 1016.0
20260507071842 63 100 7.0 0.0 0.00 0.00 0.00 64 1016.0
20260507070341 63 100 7.0 0.0 0.00 0.00 0.00 64 1016.0
20260507064841 61 110 8.7 0.0 0.00 0.00 0.00 59 1016.0
20260507063341 61 110 8.7 0.0 0.00 0.00 0.00 59 1016.0
20260507061851 61 100 9.6 0.0 0.00 0.00 0.00 63 1016.0
20260507060341 61 100 9.6 0.0 0.00 0.00 0.00 63 1016.0
20260507054841 57 110 7.8 0.0 0.00 0.00 0.00 67 1015.0
20260507053349 57 110 7.8 0.0 0.00 0.00 0.00 67 1015.0
20260507051842 57 90 6.1 0.0 0.00 0.00 0.00 67 1016.0
20260507050341 57 90 6.1 0.0 0.00 0.00 0.00 67 1016.0
20260507044838 55 90 8.7 0.0 0.00 0.00 0.00 72 1015.0
20260507043341 55 90 8.7 0.0 0.00 0.00 0.00 72 1015.0
20260507041841 50 80 4.3 0.0 0.00 0.00 0.00 94 1015.0
20260507040341 50 80 4.3 0.0 0.00 0.00 0.00 94 1015.0
20260507034838 52 90 7.0 0.0 0.00 0.00 0.00 82 1014.0
20260507033341 52 90 7.0 0.0 0.00 0.00 0.00 82 1014.0
20260507031841 52 90 7.8 0.0 0.00 0.00 0.00 88 1014.0
20260507030342 52 90 7.8 0.0 0.00 0.00 0.00 88 1014.0
20260507024838 54 90 7.8 0.0 0.00 0.00 0.00 82 1015.0